Terug naar catalogus

COSMOS 2251 DEB

ActiefLEO
NORAD 35433·DEBRIS·🇷🇺 Russia

Gelanceerd Jun 16, 1993 vanaf Plesetsk Cosmodrome

Loading…

Volgende Passages (komende 24 uur)

TLE

VersSource: Space-Track

Epoch: Sep 13, 2026, 05:52 UTC

1 35433U 93036AKB 26256.24455244  .00000396  00000-0  14723-3 0  9998
2 35433  74.0341 195.3181 0026965 189.6827 242.9705 14.35097574905183

Volg COSMOS 2251 DEB in realtime met AllMySat

Download on the App Store